Regional Weather Roundup
Issued by NWS

Home | Current Version | Previous Version | Text Only | Print | Product List | Glossary On
Versions: 1 2 3 4 5 6 7 8 9 10 11 12 13 14 15 16 17 18 19 20 21 22 23 24 25 26 27 28 29 30 31 32 33 34 35 36 37 38 39 40 41 42 43 44 45 46 47 48 49 50
155
ASUS43 KLMK 122202
RWRKY
KENTUCKY REGIONAL WEATHER ROUNDUP
NATIONAL WEATHER SERVICE LOUISVILLE KY
500 PM EST FRI FEB 12 2016

NOTE "FAIR" INDICATES FEW OR NO CLOUDS BELOW 12,000 FEET
WITH NO SIGNIFICANT WEATHER AND/OR OBSTRUCTIONS TO VISIBILITY.

KYZ001>023-026-027-061>063-070>075-122300-
WESTERN AND SOUTH CENTRAL KENTUCKY

CITY           SKY/WX    TMP DP  RH WIND       PRES   REMARKS
PADUCAH        CLOUDY    37  24  59 N10       30.29R WCI  30
HENDERSON      CLOUDY    30  23  74 W15       30.28R WCI  19
OWENSBORO      CLOUDY    31  26  81 NW17      30.26R WCI  20
HOPKINSVILLE   MOSUNNY   37  25  64 NW12G17   30.25R WCI  29
BOWLING GREEN  CLOUDY    34  25  69 NW12G18   30.24R WCI  25
GLASGOW        NOT AVBL
$$

KYZ024-025-028>034-038-045-046-053-122300-
NORTH CENTRAL KENTUCKY

CITY           SKY/WX    TMP DP  RH WIND       PRES   REMARKS
LOUISVILLE/SDF CLOUDY    32  19  58 W17G26    30.19R WCI  21
LOUISVILLE/LOU CLOUDY    31  19  61 W18G26    30.19R WCI  19
FORT KNOX      CLOUDY    31  21  68 NW13      30.18R WCI  21
$$

KYZ035>037-039>044-047>052-055>060-089>105-122300-
NORTHEAST KENTUCKY

CITY           SKY/WX    TMP DP  RH WIND       PRES   REMARKS
LEXINGTON      CLOUDY    31  20  63 W14       30.12R WCI  21
COVINGTON      CLOUDY    28  17  63 W17G24    30.10R WCI  16
FRANKFORT      CLOUDY    31  19  61 W10G21    30.13R WCI  22
$$

KYZ054-064>069-076>088-106>120-122300-
SOUTHEAST KENTUCKY

CITY           SKY/WX    TMP DP  RH WIND       PRES   REMARKS
JACKSON        CLOUDY    30  20  66 W6        30.08R WCI  24
LONDON         CLOUDY    30  23  75 W8        30.12R WCI  22
SOMERSET       NOT AVBL
MIDDLESBORO    NOT AVBL
MONTICELLO     CLOUDY    31  26  82 W12       30.19R WCI  22
$$





USA.gov is the U.S. government's official web portal to all federal, state and local government web resources and services.